Location: Esp�s Alto
(42.4476°N, 0.5876°E)
Time: 00:03:09
(UTC+00:00)

BREEZE-M DEB (TANK) - Pass Details

Date: 22 October 2019
Orbit: 327 x 16738 km, 49.5° (Epoch: 16 November)

Event Time Altitude Azimuth Distance (km) Brightness Sun altitude
Exits shadow 04:53:40 18° 347° (NNW) 886 3.7 -16.3°
Maximum altitude 04:53:57 19° 358° (N) 875 3.8 -16.2°
Drops below altitude 10° 04:55:51 10° 50° (NE) 1,370 5.6 -15.9°
Sets 04:58:39 0° 71° (ENE) 2,698 7.7 -15.4°
